Wind_Speed
23 22 21 21 20 19 19 20 20 21 20 20 19 20 20 20 19 18 18 17 17 16 16 15 15 14 14 14 13 13 13 13 13 12 12 12 12 10 9 9 10 10 9 9 8 8 8 9 9 8 7 7 7 6 6 6 6 7 7 8 8 9 9
25 24 22 22 21 20 19 19 20 20 20 19 19 19 20 19 19 18 18 18 17 17 17 16 16 15 15 14 14 14 14 14 13 12 12 12 12 11 10 10 10 10 10 10 10 9 9 10 9 9 9 8 8 7 7 7 7 7 8 8 9 9 9
23 23 22 23 22 20 19 19 20 20 19 18 18 19 19 19 18 18 18 18 18 17 17 17 17 17 16 15 15 15 15 14 13 12 11 12 12 11 11 12 12 11 11 10 10 10 9 10 10 10 10 9 9 8 8 8 8 8 9 9 9 9 10
24 24 23 23 22 20 19 19 19 19 18 18 18 18 18 18 18 18 18 18 18 18 18 18 18 18 17 16 15 15 15 15 14 13 12 12 12 11 11 12 12 12 12 11 11 10 10 10 11 11 11 11 10 10 9 9 9 9 9 9 9 9 10
25 25 24 24 22 19 18 19 19 18 17 17 17 17 17 18 18 18 18 18 18 18 18 19 19 18 17 17 16 16 16 16 15 13 13 12 12 11 11 11 11 12 12 12 12 12 11 11 11 11 11 11 11 10 9 9 8 8 8 9 9 9 9
24 25 25 23 21 19 19 19 19 17 17 17 16 16 17 18 19 19 19 18 18 18 19 19 19 19 18 17 17 17 16 16 15 14 13 12 11 10 10 10 10 11 11 12 12 12 12 11 11 11 10 10 10 9 8 8 7 7 8 8 9 9 9
24 24 24 22 20 19 19 20 19 18 18 17 16 16 17 18 19 19 19 19 19 19 19 19 19 18 18 18 17 17 16 16 16 15 13 11 9 9 9 10 10 10 10 10 11 11 11 11 10 10 9 9 8 8 8 8 7 7 7 8 8 9 9
23 23 22 21 19 19 20 20 19 19 19 18 17 17 18 19 19 20 20 21 20 19 19 19 19 18 17 17 17 16 16 16 16 15 13 11 9 8 9 9 9 10 10 11 11 11 11 10 10 9 9 8 7 8 8 8 8 8 8 9 9 10 10
20 21 21 19 19 19 20 20 21 21 20 18 18 18 19 19 20 20 21 20 19 19 19 19 19 19 18 17 16 16 15 15 15 15 14 12 10 9 9 10 10 11 11 12 12 11 11 10 10 9 9 8 8 9 9 10 10 10 10 11 11 11 12
18 19 19 19 19 19 20 21 22 22 20 18 18 19 19 19 19 19 19 18 18 18 18 19 19 19 18 17 16 15 14 14 15 15 15 13 11 10 10 11 12 12 13 13 12 12 11 11 11 10 9 10 10 10 11 12 12 12 12 13 13 13 13
16 16 18 19 19 20 20 21 21 20 19 18 18 18 18 17 17 17 17 17 16 17 18 19 19 19 18 17 15 14 13 13 14 14 15 13 12 11 11 12 13 13 13 13 13 12 12 12 11 11 11 11 11 12 13 13 13 13 14 14 14 14 13
14 14 17 19 19 20 20 20 19 19 19 19 19 18 17 16 16 16 16 16 16 17 18 18 18 18 17 16 14 13 12 12 13 13 13 13 12 12 12 13 14 14 14 13 13 12 12 12 12 13 13 12 12 13 13 13 13 13 14 14 14 14 14
13 12 15 18 19 19 19 18 19 20 20 19 19 18 17 16 16 16 16 16 17 17 18 18 18 18 17 15 13 12 11 11 11 12 12 12 12 13 14 14 14 14 14 13 13 12 12 13 14 14 14 13 13 13 13 13 13 14 14 14 15 15 16
16 14 16 17 17 17 17 17 19 20 20 19 20 19 18 17 16 16 17 17 17 18 18 19 19 19 18 16 14 12 11 11 11 11 12 12 13 14 14 15 15 14 14 13 13 13 13 14 15 15 14 14 14 14 13 14 14 14 15 15 16 16 17
19 17 17 16 16 16 15 16 17 18 18 19 20 21 19 17 16 16 16 16 16 17 18 19 19 19 18 17 15 14 13 12 12 11 11 12 13 14 15 15 15 15 15 14 14 14 15 15 15 16 15 15 16 16 16 16 16 16 16 17 17 18 18
20 19 19 17 16 17 16 16 17 18 18 19 20 20 18 16 16 15 14 14 14 15 16 18 19 19 18 17 16 15 15 15 15 14 14 14 14 15 16 17 17 17 16 15 15 16 16 17 16 17 17 17 18 18 18 18 18 19 19 19 20 20 20
22 22 21 19 19 19 17 17 18 19 19 20 21 20 17 16 16 15 14 13 13 14 16 18 19 19 18 17 16 15 15 15 16 16 16 16 16 17 18 18 19 19 18 18 18 18 18 18 18 18 18 19 19 20 20 20 20 20 21 21 22 22 23
24 23 22 21 20 19 18 18 18 20 22 23 23 21 18 17 17 16 16 15 15 15 16 18 19 20 19 18 16 15 15 16 17 17 17 18 18 19 20 20 20 20 20 19 19 19 20 19 19 19 19 20 21 21 21 22 22 22 23 23 24 25 25
23 22 21 21 20 19 18 18 20 22 23 24 24 21 19 19 19 19 18 17 17 17 18 19 20 21 21 20 19 18 17 18 19 19 19 19 19 20 21 21 21 21 21 21 21 21 21 21 20 20 21 22 22 22 22 23 24 24 25 26 27 27 27
22 20 19 20 19 18 18 18 20 22 23 24 24 22 21 21 22 21 20 19 19 19 20 21 22 22 22 22 21 20 19 19 20 20 20 20 20 21 22 22 22 21 21 22 22 22 22 22 22 22 23 23 23 23 24 25 26 27 28 29 30 30 29
24 21 19 19 19 18 18 18 20 21 23 24 24 24 23 23 23 23 22 21 21 21 21 21 21 21 22 21 21 19 19 19 20 20 20 20 21 22 22 22 22 22 22 22 23 23 24 24 24 25 25 25 25 25 26 27 28 29 30 31 32 32 31
25 24 21 21 21 20 19 19 19 19 21 23 25 25 25 25 25 25 24 22 21 21 21 21 20 20 20 20 18 17 18 19 19 20 20 21 21 21 21 22 22 22 22 23 23 24 25 25 26 26 26 26 26 27 28 29 30 31 32 33 33 34 34
26 25 24 24 24 24 23 21 20 20 20 22 24 26 27 28 28 28 27 25 23 21 21 21 21 21 20 19 17 16 17 19 20 20 21 22 22 22 21 22 22 22 23 24 24 25 26 27 27 27 28 28 28 30 31 32 33 33 34 35 35 35 35
25 25 25 25 26 26 24 23 23 23 23 23 24 25 27 28 29 31 31 30 27 24 23 23 22 21 21 19 17 16 17 19 21 22 22 23 23 23 23 23 23 24 24 25 26 27 28 28 29 29 30 31 32 33 34 34 35 35 36 36 37 37 37
25 26 26 26 27 27 25 25 27 27 27 27 26 26 28 29 30 32 32 31 30 27 27 27 24 22 21 20 18 18 19 20 22 24 25 26 26 26 26 26 26 27 28 28 29 30 31 32 32 33 33 34 35 35 36 36 36 36 37 38 38 39 39
26 26 26 26 27 27 27 29 31 32 31 31 30 29 31 33 35 36 34 32 31 30 31 31 27 23 22 21 21 21 22 23 24 26 28 29 29 29 29 29 30 31 31 32 33 34 35 36 36 36 37 37 37 38 38 38 38 38 39 40 40 40 41
27 26 27 27 27 28 30 32 34 35 35 33 30 27 27 29 32 34 35 34 34 34 34 32 27 24 24 24 24 24 24 25 26 27 29 30 31 31 32 32 33 33 34 35 36 37 38 39 39 40 40 40 41 41 41 41 41 41 42 42 42 42 43
26 26 26 28 28 29 30 31 32 31 28 26 24 22 22 22 24 27 30 33 34 32 30 29 26 25 25 25 25 25 25 26 27 28 29 30 31 31 32 33 34 34 35 36 37 38 39 40 41 42 43 43 44 44 44 43 43 44 44 44 44 44 45
24 23 24 25 26 26 27 28 29 27 24 21 21 21 21 22 22 23 25 27 28 27 26 26 25 25 25 26 26 26 26 26 27 28 29 29 30 31 32 33 33 34 35 37 38 39 39 40 41 43 44 45 46 46 46 45 45 46 46 46 47 47 47
24 23 23 24 24 24 25 26 26 25 23 22 22 22 22 22 21 21 22 24 25 25 25 25 25 25 25 26 27 27 28 29 29 29 30 30 31 32 33 33 34 34 36 38 39 40 41 41 42 43 45 46 47 48 48 48 48 49 49 50 50 51 51
24 24 24 24 24 24 25 25 25 24 24 23 23 23 22 22 21 21 23 24 25 25 26 25 25 25 26 27 28 29 31 32 32 32 33 33 34 35 36 36 36 37 38 39 42 43 44 44 45 46 47 48 49 50 50 51 51 52 53 53 54 55 56
24 23 23 23 24 25 26 26 25 24 24 24 23 23 24 24 24 24 24 25 25 25 26 26 27 28 29 30 31 32 33 34 35 36 37 38 38 39 40 41 41 42 43 44 46 47 47 47 47 49 50 51 52 52 53 55 55 56 56 57 58 59 61
24 23 23 24 25 26 26 25 24 24 24 25 25 25 26 27 26 25 25 25 25 25 27 29 30 31 33 34 35 36 36 37 37 38 39 39 39 40 42 44 44 45 47 47 48 48 49 49 49 50 51 52 53 54 56 58 59 59 60 61 62 63 65
25 25 26 26 27 28 28 27 26 25 26 27 28 28 28 28 27 26 25 26 26 28 30 32 34 36 37 37 38 39 38 38 39 40 40 39 40 41 43 46 47 48 49 50 50 50 51 51 52 52 53 54 55 57 58 60 61 62 63 64 65 66 67
28 29 30 30 30 31 30 30 29 29 30 30 30 30 29 29 29 28 29 30 31 33 35 37 38 39 40 41 42 42 40 39 41 43 44 45 46 47 48 50 52 52 52 53 53 54 55 55 56 57 57 58 59 61 62 63 64 65 66 67 68 68 68
31 32 32 33 33 33 32 31 31 31 31 31 31 30 31 31 32 33 34 35 36 37 39 41 42 42 43 43 44 45 44 43 45 47 48 49 51 53 54 55 56 56 56 57 58 59 60 60 61 61 61 62 63 63 64 65 67 68 69 70 71 71 70
32 33 34 34 34 34 34 33 33 33 33 33 33 34 35 36 37 38 39 40 40 41 41 43 44 45 45 45 46 47 47 48 49 51 52 54 55 57 58 58 58 58 59 60 60 60 60 61 61 62 63 64 64 66 67 69 71 72 73 74 75 75 75
Wind_Direction
248 248 250 252 250 249 248 247 246 244 242 241 242 246 249 249 247 245 243 242 243 246 250 255 257 258 257 255 255 254 255 256 259 262 266 267 267 264 261 259 258 257 257 251 243 243 243 242 249 253 251 250 247 245 250 257 266 276 283 288 292 296 301
244 246 248 250 249 249 249 246 243 240 240 242 245 248 250 248 246 244 243 243 245 248 253 257 259 258 257 254 254 254 255 257 259 263 266 266 266 264 261 259 258 257 255 253 250 246 247 251 254 255 256 254 251 252 255 260 266 270 276 281 287 292 296
240 246 247 247 247 246 244 240 237 236 239 245 249 250 247 245 243 243 245 246 249 253 257 260 261 260 257 255 254 255 257 260 262 265 267 265 264 262 259 258 256 256 256 256 255 250 249 254 259 261 261 260 259 260 261 262 265 269 276 281 287 291 293
249 251 247 247 246 242 238 235 235 237 243 249 250 248 244 242 242 243 246 249 253 258 260 261 261 259 257 256 255 257 260 263 265 267 265 262 263 261 258 258 257 256 257 258 259 258 255 255 259 262 264 265 265 265 266 269 272 276 280 283 285 287 288
254 251 249 248 244 240 237 235 237 243 249 251 249 246 243 241 241 244 248 253 258 261 261 261 260 258 256 255 255 257 261 265 267 267 265 261 259 258 256 258 260 259 258 258 260 262 261 259 260 262 264 267 269 270 273 275 278 280 282 284 286 288 290
250 251 250 246 241 237 237 238 242 249 253 253 250 245 241 240 242 245 250 255 259 260 260 260 259 257 254 254 255 259 263 266 267 267 264 258 253 253 255 257 261 260 260 260 260 260 259 257 257 260 264 269 274 278 281 282 283 284 285 286 288 291 294
247 248 247 243 238 234 237 240 244 250 253 251 247 244 241 242 244 248 252 257 259 259 258 258 259 257 255 255 257 262 265 266 266 265 259 252 247 248 253 257 259 261 259 257 255 254 253 253 255 259 264 269 276 282 285 285 284 286 287 288 289 291 295
243 244 243 242 237 235 239 242 245 250 249 245 242 241 242 244 247 250 255 258 258 256 255 256 257 256 255 256 259 264 266 265 262 259 253 248 247 249 254 258 258 257 254 251 249 247 248 252 255 258 261 266 274 280 283 285 288 290 289 290 291 293 295
241 243 239 238 236 238 242 244 247 248 245 241 240 240 241 243 247 251 254 254 252 251 252 254 254 253 252 254 259 263 264 263 257 253 250 248 250 253 254 255 254 251 248 246 245 246 248 251 252 255 261 268 274 279 284 288 290 292 291 292 293 294 295
247 245 235 233 234 237 242 244 247 245 240 239 239 240 240 242 246 248 248 247 246 247 250 252 252 251 250 252 255 258 261 260 254 249 247 247 248 250 250 250 249 247 245 244 245 247 249 251 254 260 266 272 276 280 284 287 290 292 292 293 294 295 296
253 246 233 231 231 235 240 243 245 242 239 239 241 241 239 238 240 240 240 240 243 248 250 250 251 250 250 252 252 254 257 256 251 247 245 243 242 243 244 245 244 243 243 243 245 247 250 254 260 266 270 273 277 281 283 286 289 292 294 295 296 297 297
245 245 236 232 230 234 239 242 243 242 242 244 244 241 235 232 235 236 237 240 245 251 252 251 251 250 251 251 251 251 252 252 249 246 243 238 236 238 242 244 244 244 244 245 247 250 254 260 263 266 269 272 276 279 282 285 289 292 293 293 293 292 289
241 246 238 234 232 236 240 241 240 242 245 246 243 237 230 232 240 242 243 246 250 253 252 251 249 248 249 249 249 251 252 253 251 246 242 236 234 236 240 243 244 246 247 248 251 255 259 262 263 264 266 269 273 277 280 283 285 287 286 285 284 282 280
247 249 236 231 231 234 237 236 236 240 242 240 237 234 234 240 247 248 249 250 250 250 249 248 246 245 245 246 249 252 256 259 257 252 247 241 239 240 242 245 246 247 250 251 254 258 260 261 261 262 263 265 268 270 272 274 275 274 274 273 274 274 275
249 245 228 224 229 232 230 230 234 237 234 232 233 235 238 244 247 247 249 249 246 245 245 245 243 242 243 246 250 255 259 263 263 260 256 251 249 248 249 251 250 250 252 254 257 258 259 259 260 261 262 263 265 266 266 266 265 264 264 265 266 267 269
242 233 221 220 227 230 227 227 232 233 229 230 234 234 235 240 242 242 245 246 244 244 244 244 244 243 244 248 253 257 261 263 264 264 263 260 258 256 255 255 255 255 256 257 258 258 257 257 258 260 262 263 265 267 266 265 263 261 261 261 263 265 268
233 225 219 219 222 223 222 223 228 230 227 229 235 234 231 234 237 238 242 247 249 249 246 246 245 244 244 246 250 256 260 262 263 263 263 260 259 258 257 256 256 257 258 259 259 258 257 256 256 258 260 262 264 265 266 266 265 264 263 264 266 269 272
227 223 221 220 219 220 221 222 227 230 229 229 233 233 230 232 236 238 243 250 254 254 251 248 246 244 243 243 247 255 262 264 263 261 260 258 255 255 255 255 255 255 256 258 259 258 257 256 255 255 257 259 261 262 263 264 265 265 266 267 269 272 273
227 225 225 224 222 223 224 224 226 230 231 231 234 235 233 235 238 241 246 251 255 256 255 253 250 248 246 246 250 257 263 265 263 261 258 255 254 253 253 253 253 253 254 256 256 257 257 257 255 254 254 255 256 258 259 260 262 263 265 268 270 271 271
227 229 231 229 228 228 228 227 226 228 230 233 237 240 239 239 240 243 247 251 255 256 256 254 252 252 252 252 253 257 262 263 262 260 258 255 253 253 253 253 252 252 254 255 256 257 258 259 258 256 255 254 254 254 255 257 259 261 264 267 269 269 270
227 234 236 232 232 233 233 232 231 231 233 236 241 244 245 244 243 244 248 253 256 258 257 256 255 256 257 257 256 258 260 260 259 258 255 253 252 252 252 252 252 253 254 255 256 257 259 260 259 258 258 257 257 257 258 260 262 265 268 271 272 272 272
227 235 235 231 233 236 237 238 238 237 237 239 243 246 247 247 245 244 246 252 257 258 258 260 261 261 261 259 257 256 257 257 256 254 252 251 251 251 251 252 253 254 255 255 256 257 258 259 260 259 260 260 260 261 263 265 268 270 272 273 274 275 274
230 235 235 233 236 240 243 245 243 241 241 242 243 244 246 248 247 247 247 251 256 259 261 262 263 262 258 253 250 249 253 254 252 251 250 251 251 252 253 254 254 255 255 256 257 257 258 258 258 259 259 260 261 262 265 267 269 271 272 273 273 273 274
236 238 239 240 243 247 249 251 249 247 245 245 245 246 248 249 250 250 250 252 255 258 260 261 262 260 253 246 241 241 247 250 250 250 251 251 251 251 252 252 253 253 254 255 256 256 256 256 257 257 259 260 261 263 266 268 269 270 271 272 273 273 274
238 241 243 247 251 254 254 254 254 251 247 246 248 251 251 251 251 251 251 252 253 256 257 258 258 255 248 241 237 236 239 243 245 247 248 249 249 250 251 251 252 252 253 254 254 255 256 256 257 258 258 259 261 263 265 267 268 270 270 271 273 274 275
237 241 245 249 251 252 252 252 253 254 254 253 254 254 253 252 250 249 250 252 254 256 258 255 250 245 243 241 240 239 238 239 241 243 245 247 249 251 252 253 253 254 254 255 255 256 256 257 257 257 257 258 259 261 263 265 267 268 269 270 272 274 276
236 240 244 247 246 244 245 247 251 255 257 257 254 251 251 252 250 248 248 249 251 254 254 248 241 238 240 243 245 245 242 241 242 243 245 247 250 252 254 255 255 256 256 257 258 258 258 258 258 258 258 259 260 262 264 266 267 268 268 269 270 273 276
238 240 242 244 243 241 244 248 251 254 254 249 245 244 248 251 252 250 247 245 246 247 245 240 236 236 240 246 251 252 250 250 251 251 251 252 253 254 256 257 259 260 260 261 261 260 260 261 260 260 260 261 262 264 265 267 267 267 267 269 271 273 276
234 235 235 239 242 243 246 250 252 252 249 243 240 243 247 249 250 248 244 240 239 237 235 234 236 238 244 250 255 257 257 257 258 259 259 259 259 260 261 262 264 267 268 268 267 265 264 264 263 263 263 263 264 265 266 266 266 266 266 268 270 272 273
230 233 237 241 244 246 248 250 249 248 245 242 240 241 243 246 246 243 237 233 231 230 231 233 237 242 248 253 257 259 260 260 261 263 264 265 266 265 265 266 267 269 271 272 271 269 268 268 267 266 265 265 265 266 266 265 265 265 266 267 269 271 273
234 237 241 244 247 249 248 248 246 244 242 241 241 240 240 241 241 240 236 232 231 231 233 237 243 248 253 257 259 261 261 261 262 263 265 266 267 267 267 267 267 266 268 270 270 270 271 271 270 270 270 269 269 268 267 267 267 267 268 268 270 272 274
240 241 242 245 247 248 247 246 245 245 243 241 240 241 241 239 238 238 237 237 238 240 242 246 249 253 257 260 261 261 261 262 263 264 265 265 266 267 268 268 267 267 268 268 269 270 271 271 272 272 272 272 272 271 271 270 270 270 271 271 272 274 277
246 244 243 242 242 243 244 244 244 244 243 242 243 246 245 241 239 239 241 243 245 248 251 253 255 258 261 263 263 263 263 264 263 263 265 266 266 267 268 268 268 268 268 268 268 269 270 271 272 273 273 273 273 273 272 273 273 273 273 274 275 277 279
247 246 243 241 240 240 241 243 243 242 242 244 247 250 247 243 242 245 249 252 253 253 254 255 258 260 262 262 261 261 261 262 264 263 262 261 261 263 265 267 268 268 268 269 269 269 270 271 272 273 274 274 273 273 273 274 275 275 276 276 277 278 279
247 246 245 244 243 243 243 244 245 245 246 248 249 250 249 247 249 253 257 259 259 259 259 260 260 260 261 262 261 260 258 259 261 261 261 261 262 263 265 267 268 269 269 269 270 270 271 272 273 273 274 274 274 275 275 276 276 277 277 277 278 279 280
246 247 248 248 248 247 247 246 246 247 248 248 248 248 248 250 253 256 259 261 262 262 263 264 264 263 263 263 264 263 262 261 260 261 263 265 266 267 268 269 270 271 271 271 272 273 273 274 274 275 275 275 276 276 277 277 278 278 279 279 280 280 281
243 245 247 249 249 249 248 248 248 248 249 249 248 248 250 253 257 260 262 263 264 263 263 264 265 265 264 264 264 265 265 265 265 265 266 267 268 269 270 271 272 272 272 273 273 274 274 275 276 276 276 276 277 277 277 278 278 279 279 279 279 279 279
Height
5790 5789 5790 5790 5791 5793 5794 5795 5797 5798 5799 5801 5802 5803 5804 5805 5806 5806 5807 5807 5808 5808 5808 5809 5809 5809 5810 5810 5810 5811 5812 5812 5812 5813 5812 5812 5812 5813 5813 5813 5813 5813 5813 5813 5813 5813 5813 5813 5812 5812 5813 5812 5812 5812 5812 5812 5813 5813 5813 5813 5813 5812 5812
5788 5788 5788 5788 5790 5791 5792 5794 5795 5796 5798 5799 5801 5802 5803 5804 5804 5805 5805 5806 5807 5807 5807 5808 5808 5808 5809 5809 5809 5810 5810 5811 5811 5811 5811 5811 5811 5812 5812 5812 5811 5812 5812 5812 5812 5812 5812 5812 5812 5812 5812 5812 5811 5811 5811 5811 5812 5812 5811 5811 5811 5811 5811
5784 5785 5786 5787 5788 5789 5791 5792 5793 5795 5797 5798 5799 5801 5801 5802 5803 5804 5804 5805 5805 5806 5806 5807 5807 5807 5808 5808 5808 5808 5809 5809 5810 5810 5810 5810 5809 5810 5811 5811 5811 5811 5811 5811 5812 5812 5812 5811 5811 5811 5811 5811 5811 5810 5810 5810 5811 5811 5811 5811 5810 5810 5810
5782 5783 5784 5785 5787 5788 5789 5791 5792 5794 5795 5797 5798 5799 5800 5801 5802 5802 5803 5804 5804 5805 5805 5806 5806 5806 5806 5806 5807 5807 5808 5808 5808 5809 5809 5809 5808 5808 5809 5810 5810 5810 5810 5810 5811 5811 5811 5811 5811 5811 5811 5811 5811 5810 5810 5810 5810 5810 5810 5810 5809 5809 5809
5781 5781 5782 5784 5786 5787 5788 5790 5791 5792 5794 5795 5796 5798 5799 5799 5800 5801 5801 5802 5803 5803 5804 5804 5804 5804 5804 5805 5805 5806 5806 5806 5807 5807 5808 5808 5807 5807 5808 5808 5808 5809 5809 5809 5810 5810 5810 5810 5810 5810 5810 5810 5810 5810 5810 5809 5809 5809 5809 5809 5808 5808 5808
5779 5780 5781 5783 5784 5786 5787 5788 5790 5791 5792 5793 5795 5796 5797 5798 5799 5799 5800 5801 5801 5802 5802 5802 5803 5803 5803 5803 5803 5804 5804 5805 5805 5806 5806 5806 5806 5806 5806 5806 5807 5807 5807 5808 5808 5809 5809 5809 5809 5809 5809 5809 5809 5809 5809 5809 5808 5808 5808 5808 5807 5807 5807
5777 5778 5780 5782 5784 5785 5786 5787 5788 5789 5790 5791 5793 5794 5795 5796 5797 5798 5798 5799 5799 5800 5800 5801 5801 5801 5801 5801 5802 5802 5803 5803 5803 5804 5804 5804 5804 5804 5805 5805 5805 5805 5806 5806 5807 5807 5807 5808 5808 5808 5808 5808 5808 5808 5808 5808 5807 5807 5807 5807 5806 5806 5806
5776 5777 5779 5781 5783 5784 5785 5786 5787 5787 5788 5789 5790 5792 5793 5794 5795 5796 5797 5797 5798 5798 5798 5799 5799 5800 5800 5800 5800 5801 5801 5801 5801 5802 5802 5802 5803 5803 5803 5803 5804 5804 5805 5805 5805 5806 5806 5807 5807 5807 5807 5807 5807 5807 5807 5806 5806 5806 5805 5805 5805 5805 5804
5774 5775 5778 5780 5782 5783 5784 5785 5786 5786 5786 5787 5789 5790 5791 5792 5793 5794 5795 5795 5796 5796 5796 5797 5797 5798 5798 5799 5799 5799 5799 5799 5799 5800 5800 5801 5801 5802 5802 5802 5803 5803 5803 5804 5804 5805 5805 5805 5805 5805 5805 5805 5805 5805 5805 5805 5804 5804 5804 5804 5804 5803 5803
5773 5774 5776 5777 5779 5781 5782 5783 5783 5784 5785 5786 5787 5788 5789 5790 5791 5792 5793 5794 5794 5794 5795 5795 5796 5796 5797 5797 5797 5797 5797 5797 5798 5798 5799 5799 5800 5800 5801 5801 5801 5802 5802 5802 5803 5803 5804 5804 5804 5803 5803 5803 5803 5803 5803 5803 5803 5803 5803 5802 5802 5802 5801
5772 5772 5773 5775 5776 5777 5779 5780 5781 5782 5783 5784 5785 5786 5787 5788 5789 5790 5791 5792 5792 5793 5793 5793 5794 5794 5795 5795 5795 5795 5795 5796 5796 5797 5797 5798 5798 5799 5799 5800 5800 5801 5801 5801 5801 5802 5802 5802 5802 5802 5802 5802 5802 5802 5802 5802 5802 5801 5801 5801 5801 5800 5800
5770 5771 5771 5773 5774 5775 5776 5778 5779 5780 5781 5782 5783 5783 5784 5786 5787 5788 5789 5790 5790 5790 5791 5791 5791 5792 5793 5793 5794 5794 5794 5794 5794 5795 5795 5796 5797 5797 5798 5799 5799 5800 5800 5800 5800 5800 5800 5800 5800 5800 5800 5800 5800 5801 5801 5800 5800 5800 5800 5800 5800 5799 5799
5768 5769 5770 5771 5772 5772 5774 5775 5776 5777 5778 5780 5780 5781 5782 5783 5784 5786 5787 5788 5788 5788 5788 5789 5789 5790 5790 5791 5792 5792 5792 5792 5793 5793 5794 5794 5795 5796 5796 5797 5797 5798 5798 5799 5799 5799 5798 5799 5799 5799 5799 5799 5799 5799 5799 5799 5799 5799 5799 5799 5799 5798 5798
5765 5766 5767 5769 5770 5770 5771 5772 5773 5775 5776 5777 5778 5779 5781 5782 5782 5783 5784 5785 5786 5786 5786 5787 5787 5788 5788 5789 5790 5790 5790 5791 5791 5791 5792 5792 5793 5793 5794 5795 5796 5796 5797 5797 5797 5797 5797 5797 5797 5797 5797 5797 5797 5797 5798 5798 5798 5798 5798 5798 5797 5797 5797
5763 5764 5765 5766 5767 5768 5769 5770 5771 5772 5774 5775 5777 5778 5779 5780 5780 5781 5782 5783 5783 5784 5784 5784 5785 5785 5786 5787 5788 5788 5789 5789 5789 5790 5790 5790 5791 5791 5792 5793 5794 5794 5794 5794 5795 5795 5795 5795 5795 5795 5795 5795 5795 5796 5796 5796 5796 5796 5796 5796 5795 5795 5794
5761 5762 5763 5764 5765 5766 5767 5767 5769 5770 5772 5774 5775 5776 5777 5778 5778 5779 5780 5781 5781 5781 5781 5782 5783 5783 5783 5784 5785 5786 5786 5787 5787 5788 5788 5788 5789 5789 5790 5791 5791 5792 5792 5792 5792 5793 5793 5793 5793 5794 5794 5794 5794 5794 5794 5794 5794 5794 5794 5793 5793 5792 5792
5757 5759 5760 5761 5763 5764 5765 5766 5767 5768 5770 5771 5773 5774 5775 5775 5776 5777 5778 5778 5779 5779 5779 5780 5780 5781 5781 5782 5782 5783 5784 5784 5785 5785 5786 5786 5786 5787 5787 5788 5789 5789 5789 5790 5790 5790 5791 5791 5792 5792 5792 5792 5792 5792 5792 5792 5792 5792 5791 5791 5791 5790 5789
5754 5756 5758 5759 5760 5762 5763 5764 5765 5766 5767 5768 5769 5771 5772 5773 5774 5775 5775 5776 5777 5777 5777 5778 5778 5778 5779 5779 5780 5781 5781 5782 5782 5782 5783 5783 5784 5784 5785 5785 5786 5786 5787 5787 5788 5788 5788 5789 5789 5790 5790 5790 5790 5790 5790 5790 5789 5789 5789 5788 5788 5788 5787
5753 5754 5756 5757 5759 5760 5761 5762 5763 5764 5765 5766 5767 5768 5769 5770 5771 5772 5773 5774 5775 5775 5776 5776 5776 5777 5777 5777 5777 5778 5779 5779 5780 5780 5780 5780 5781 5781 5782 5782 5783 5783 5784 5784 5784 5785 5785 5786 5786 5787 5787 5788 5788 5788 5788 5787 5787 5787 5786 5786 5785 5785 5784
5752 5753 5755 5756 5757 5758 5759 5760 5761 5762 5763 5764 5765 5766 5767 5768 5769 5770 5771 5772 5772 5773 5773 5774 5774 5774 5775 5775 5775 5776 5776 5777 5777 5778 5778 5778 5778 5778 5779 5779 5779 5780 5780 5781 5781 5782 5782 5783 5783 5784 5784 5785 5785 5785 5785 5785 5785 5784 5784 5783 5782 5782 5781
5750 5751 5753 5754 5755 5756 5757 5758 5760 5761 5761 5762 5762 5763 5764 5765 5766 5767 5768 5769 5769 5770 5770 5771 5771 5772 5772 5773 5773 5773 5774 5774 5775 5775 5775 5775 5776 5776 5776 5776 5777 5777 5778 5778 5778 5779 5779 5779 5780 5780 5781 5781 5782 5782 5782 5782 5782 5781 5781 5780 5779 5778 5778
5748 5749 5750 5751 5753 5754 5755 5756 5758 5758 5759 5759 5759 5760 5761 5762 5763 5764 5765 5766 5766 5766 5767 5768 5768 5769 5769 5770 5771 5771 5771 5772 5772 5772 5772 5772 5773 5773 5773 5774 5774 5775 5775 5776 5776 5776 5776 5776 5777 5777 5778 5778 5778 5778 5778 5778 5778 5778 5777 5777 5776 5775 5775
5745 5746 5747 5749 5750 5751 5752 5753 5755 5755 5756 5756 5757 5757 5758 5759 5760 5761 5762 5762 5763 5763 5764 5765 5765 5766 5766 5767 5767 5768 5769 5769 5769 5769 5769 5769 5770 5771 5771 5771 5772 5772 5773 5773 5773 5774 5774 5774 5774 5774 5775 5775 5775 5775 5775 5775 5774 5774 5774 5773 5773 5772 5771
5743 5744 5745 5746 5747 5748 5749 5750 5751 5752 5753 5753 5754 5754 5755 5756 5757 5757 5758 5759 5760 5761 5761 5762 5762 5763 5763 5763 5764 5764 5765 5766 5766 5766 5767 5767 5768 5768 5768 5768 5769 5769 5769 5770 5770 5770 5771 5771 5771 5771 5771 5771 5771 5771 5771 5771 5770 5770 5770 5769 5768 5768 5767
5740 5741 5743 5744 5744 5746 5747 5747 5747 5748 5749 5750 5751 5752 5752 5753 5753 5753 5754 5755 5757 5758 5758 5759 5759 5760 5760 5760 5761 5761 5762 5763 5763 5764 5764 5765 5765 5765 5766 5766 5766 5766 5766 5766 5767 5767 5767 5767 5767 5767 5768 5768 5767 5767 5767 5766 5766 5766 5765 5765 5764 5763 5762
5738 5739 5740 5741 5742 5743 5744 5744 5743 5743 5745 5747 5747 5748 5749 5749 5749 5750 5751 5752 5753 5754 5755 5755 5756 5756 5757 5758 5758 5758 5759 5760 5760 5761 5761 5762 5762 5763 5763 5763 5763 5763 5763 5763 5763 5763 5763 5763 5763 5763 5763 5763 5763 5763 5762 5762 5762 5761 5761 5760 5759 5758 5758
5736 5737 5738 5739 5739 5740 5740 5741 5741 5741 5741 5743 5744 5744 5744 5744 5744 5746 5747 5748 5749 5750 5751 5751 5752 5753 5754 5755 5755 5755 5756 5756 5757 5757 5758 5758 5759 5759 5760 5760 5760 5760 5760 5760 5760 5759 5759 5759 5759 5759 5759 5759 5758 5758 5758 5758 5757 5757 5756 5755 5754 5754 5753
5733 5734 5735 5736 5736 5735 5736 5737 5738 5737 5738 5739 5740 5740 5741 5741 5741 5742 5743 5743 5744 5745 5746 5747 5748 5750 5751 5751 5752 5752 5752 5753 5753 5754 5754 5754 5755 5755 5756 5756 5756 5756 5756 5756 5755 5755 5754 5754 5755 5754 5754 5754 5753 5753 5753 5753 5752 5752 5751 5750 5750 5749 5748
5730 5730 5731 5732 5732 5733 5733 5734 5734 5734 5735 5736 5736 5737 5737 5738 5738 5738 5739 5739 5741 5742 5743 5744 5745 5746 5747 5748 5748 5749 5749 5749 5750 5750 5750 5750 5750 5751 5751 5751 5751 5751 5751 5751 5751 5750 5750 5750 5750 5749 5749 5748 5748 5748 5747 5747 5746 5746 5745 5745 5744 5743 5742
5727 5727 5728 5729 5729 5730 5731 5731 5731 5732 5733 5733 5734 5734 5734 5735 5735 5735 5736 5736 5737 5738 5739 5741 5742 5743 5744 5744 5745 5745 5746 5746 5746 5746 5746 5746 5746 5746 5746 5746 5746 5746 5746 5746 5745 5744 5744 5744 5744 5743 5743 5742 5742 5741 5741 5740 5740 5739 5738 5738 5737 5736 5735
5724 5725 5726 5726 5727 5728 5728 5728 5729 5729 5730 5730 5731 5731 5732 5732 5733 5733 5734 5734 5735 5736 5737 5738 5739 5740 5740 5741 5741 5742 5742 5742 5742 5742 5742 5741 5741 5741 5741 5741 5741 5741 5741 5741 5739 5738 5738 5738 5737 5737 5736 5735 5735 5735 5733 5733 5732 5732 5731 5730 5729 5728 5727
5721 5722 5722 5723 5724 5725 5725 5725 5726 5727 5727 5728 5728 5729 5729 5730 5730 5731 5731 5732 5733 5734 5735 5735 5736 5736 5737 5737 5737 5737 5737 5737 5738 5737 5737 5736 5736 5736 5736 5736 5736 5736 5736 5736 5734 5733 5732 5732 5731 5730 5729 5729 5729 5728 5726 5725 5725 5725 5724 5723 5722 5721 5720
5718 5718 5719 5720 5721 5722 5722 5723 5723 5724 5725 5725 5726 5726 5727 5727 5727 5728 5729 5730 5731 5731 5731 5732 5732 5732 5733 5733 5733 5734 5734 5733 5733 5732 5732 5732 5732 5732 5731 5730 5730 5730 5729 5729 5729 5727 5726 5726 5725 5724 5723 5722 5722 5721 5719 5718 5717 5717 5716 5715 5715 5714 5712
5714 5715 5716 5717 5718 5718 5719 5720 5720 5721 5721 5722 5722 5723 5724 5724 5725 5725 5726 5727 5727 5728 5727 5728 5728 5728 5728 5728 5729 5730 5730 5729 5728 5727 5727 5727 5727 5727 5726 5724 5724 5724 5722 5721 5721 5721 5720 5719 5718 5717 5716 5715 5714 5713 5712 5711 5709 5709 5708 5707 5706 5706 5704
5711 5712 5713 5714 5714 5715 5716 5716 5717 5718 5718 5719 5719 5719 5720 5721 5721 5722 5723 5723 5723 5723 5723 5723 5723 5723 5723 5723 5723 5724 5724 5724 5723 5721 5721 5721 5720 5720 5720 5717 5716 5717 5716 5714 5714 5713 5712 5712 5711 5710 5709 5707 5706 5705 5704 5703 5701 5701 5700 5698 5697 5697 5696
5707 5708 5709 5710 5711 5712 5712 5713 5713 5714 5714 5715 5715 5716 5716 5717 5717 5718 5718 5718 5718 5719 5718 5718 5718 5718 5718 5718 5718 5718 5718 5718 5717 5716 5715 5715 5713 5712 5712 5710 5710 5710 5708 5707 5706 5705 5704 5703 5703 5702 5700 5699 5697 5696 5695 5694 5693 5691 5690 5688 5687 5686 5686
5703 5704 5705 5706 5707 5708 5708 5709 5709 5710 5710 5710 5711 5711 5711 5712 5712 5712 5713 5713 5713 5713 5713 5713 5713 5712 5712 5712 5712 5712 5712 5711 5711 5710 5709 5708 5707 5705 5705 5703 5703 5702 5701 5699 5698 5697 5696 5695 5694 5693 5692 5690 5689 5687 5686 5685 5683 5681 5680 5679 5677 5676 5675